Regional Weather Roundup
Issued by NWS

Home | Current Version | Previous Version | Text Only | Print | Product List | Glossary Off
Versions: 1 2 3 4 5 6 7 8 9 10 11 12 13 14 15 16 17 18 19 20 21 22 23 24 25 26 27

000
ASUS45 KBOU 211607
RWRCO

WEATHER ROUNDUP FOR COLORADO
NATIONAL WEATHER SERVICE DENVER/BOULDER CO
1000 AM MDT SUN MAY 21 2017

NOTE: "FAIR" INDICATES FEW OR NO CLOUDS BELOW 12000 FEET WITH NO
SIGNIFICANT WEATHER AND/OR OBSTRUCTIONS TO VISIBILITY.

COZ001>005-013-030-031-211700-
...NORTHWEST COLORADO...

CITY           SKY/WX    TMP DP  RH WIND       PRES   REMARKS
CRAIG          FAIR      55  32  41 NE10      30.22F
HAYDEN         FAIR      50  30  46 E6        30.23F
MEEKER         FAIR      56  33  42 N3        30.22F
RABBIT EARS PA PTSUNNY   34  30  86 W5        30.35R WCI  30
STEAMBOAT SPGS CLOUDY    46  32  59 CALM      30.24S
WALDEN           N/A     46  28  49 S6        30.28S
$$

COZ006>008-011-211700-
...WEST CENTRAL VALLEYS...

CITY           SKY/WX    TMP DP  RH WIND       PRES   REMARKS
GRAND JUNCTION FAIR      59  32  36 SE6       30.19F
MONTROSE       FAIR      55  33  43 N5        30.23F
EAGLE          MOSUNNY   46  28  49 CALM      30.29F
RIFLE          FAIR      54  31  41 CALM      30.22F
DELTA          FAIR      58  28  31 CALM      30.23S
NUCLA          FAIR      55  28  35 CALM      30.26S
$$

COZ017>023-064>068-211700-
...SOUTHWEST COLORADO...

CITY           SKY/WX    TMP DP  RH WIND       PRES   REMARKS
DURANGO        FAIR      54  28  36 SW3       30.24S
CORTEZ         FAIR      57  31  37 CALM      30.22S
PAGOSA SPRINGS FAIR      54  22  28 SE5       30.27S
TELLURIDE      FAIR      47  18  30 CALM      30.33S
WOLF CREEK PAS NOT AVBL
$$

COZ009-010-012-014-032>034-037-058>063-211700-
...CENTRAL COLORADO...

CITY           SKY/WX    TMP DP  RH WIND       PRES   REMARKS
ASPEN          FAIR      50  23  34 N6        30.26S
BUENA VISTA    FAIR      49  20  31 SE5       30.28S
COPPER MTN     FAIR      34  21  60 CALM      30.39R
BERTHOUD PASS  FAIR      27  14  59 NW13      30.38S WCI  16
COTTONWOOD PAS FAIR      46  19  34 E5        30.33S
GUNNISON       FAIR      45  24  43 CALM      30.30F
KREMMLING      FAIR      46  32  57 SW3       30.30F
LEADVILLE      FAIR      39  19  44 CALM      30.32S
MONARCH PASS   FAIR      32  18  55 W9        30.50R WCI  24
SALIDA         FAIR      51  28  42 CALM      30.34F
SUNLIGHT       FAIR      36  21  55 CALM      30.40S
WILKERSON PASS FAIR      36  21  55 NW3       30.39S
$$

COZ069>075-211700-
...SAN LUIS VALLEY/SANGRE DE CRISTO MOUNTAINS...

CITY           SKY/WX    TMP DP  RH WIND       PRES   REMARKS
ALAMOSA        FAIR      52  26  36 VRB6      30.27R
DEL NORTE      FAIR      51  26  38 SE10      30.28S
LA VETA PASS   FAIR      45  23  42 S8G20     30.45S
SAGUACHE       FAIR      52  19  28 CALM      30.27F
$$

COZ035-036-038>040-211700-
...NORTHERN COLORADO FRONT RANGE...

CITY           SKY/WX    TMP DP  RH WIND       PRES   REMARKS
DENVER INTL AP FAIR      58  32  37 VRB3      30.21S
DMNS CITY PARK   N/A     60  30  32 NE3G13    30.20F
AURORA         MOSUNNY   56  31  38 CALM      30.22R
FRONT RANGE AP MOSUNNY   59  34  38 N10       30.22S
ERIE MUNI ARPT FAIR      56  36  47 CALM      30.20F
BOULDER MUN AP FAIR      55  32  41 CALM      30.20S
CENTENNIAL     FAIR      56  31  38 VRB5      30.21S
BROOMFIELD     MOSUNNY   55  32  41 N5        30.22S
FORT COLLINS   FAIR      57  39  51 VRB5      30.21S
LONGMONT       FAIR      62  36  38 NE7       30.21S
$$

COZ041-046-047-076>085-087-088-211700-
...PIKES PEAK/PALMER DIVIDE AND SOUTHERN FOOTHILLS...

CITY           SKY/WX    TMP DP  RH WIND       PRES   REMARKS
COLO. SPRINGS  FAIR      57  33  40 VRB3      30.23F
A. F. ACADEMY  FAIR      55  33  41 S7        30.22F
SCHRIEVER AFB  FAIR      55  32  41 NE5       30.23F
CHEYENNE MTN   FAIR      54  34  47 E6        30.19S
ELLICOTT       FAIR     N/A N/A N/A S7        30.22S
FALCON         FAIR      54  32  42 S10       30.26S
FORT CARSON    FAIR      57  33  41 SE7       30.21F
LIMON          FAIR      59  37  44 S12       30.21F
MONUMENT HILL  FAIR      52  30  43 SW3       30.25S
CANON CITY     NOT AVBL
WALSENBURG     FAIR      57  39  51 CALM      30.22F
TRINIDAD       FAIR      58  33  39 VRB3      30.21S
$$

COZ042>045-048>051-090-091-211700-
...NORTHEAST COLORADO...

CITY           SKY/WX    TMP DP  RH WIND       PRES   REMARKS
GREELEY ARPT   FAIR      56  40  55 E5        30.22S
AKRON          FAIR      58  35  42 VRB5      30.20S
BURLINGTON     FAIR      64  42  44 W10       30.20S
WRAY           FAIR      63  39  42 NW7       30.19S
YUMA           FAIR      59  36  41 NW9       30.19S
STERLING       FAIR      57  43  58 CALM      30.18F
HOLYOKE        NOT AVBL
FORT MORGAN    PTSUNNY   60  38  44 CALM      30.21S
$$

COZ086-089-092>099-211700-
...SOUTHEAST COLORADO...

CITY           SKY/WX    TMP DP  RH WIND       PRES   REMARKS
PUEBLO         FAIR      61  37  41 E5        30.18F
LA JUNTA       PTSUNNY   61  39  44 VRB6      30.18S
LAMAR          FAIR      65  41  41 SE13G18   30.15F
SPRINGFIELD      N/A     60  42  51 S22G30    30.18F
$$




USA.gov is the U.S. government's official web portal to all federal, state and local government web resources and services.